Location: Cluj-Napoca
(46.7712°N, 23.6236°E)
Time: 01:22:26
(UTC+03:00)

N. Korean satellite - Pass Details

Date: 05 October 2021
Orbit: 450 x 495 km, 97.3° (Epoch: 21 October)

Event Time Altitude Azimuth Distance (km) Brightness Sun altitude
Rises 06:31:07 0° 16° (NNE) 2,561 10.5 -10.8°
Reaches altitude 10° 06:33:13 10° 21° (NNE) 1,682 9.6 -10.5°
Maximum altitude 06:36:47 54° 100° (E) 601 7.4 -9.9°
Drops below altitude 10° 06:40:21 10° 179° (S) 1,685 9.3 -9.2°
Sets 06:42:27 0° 184° (S) 2,565 10.2 -8.9°
